Weather History for KITH - March, 2013

Change the Weather History Date:

Friday, March 22, 2013

  Actual Average Record
Temperature  
Mean Temperature 27 °F -  
Max Temperature 31 °F 42 °F 82 °F (1938)
Min Temperature 23 °F 25 °F 7 °F (1956)
Degree Days  
Heating Degree Days 38    
Moisture  
Dew Point 21 °F    
Average Humidity 79    
Maximum Humidity 88    
Minimum Humidity 72    
Precipitation  
Precipitation 0.00 in - - ()
Sea Level Pressure  
Sea Level Pressure 29.79 in    
Wind  
Wind Speed 10 mph (WNW)    
Max Wind Speed 21 mph    
Max Gust Speed 24 mph    
Visibility 8 miles    
Events Snow    
Averages and records for this station are not official NWS values.
T = Trace of Precipitation, MM = Missing Value Source: NWS Daily Summary

Daily Weather History Graph

Daily Weather History Graph

Search for Another Location

Airport or City:

Trip Planner

Search our weather history database for the weather conditions in past years. The results will help you decide how hot, cold, wet, or windy it might be!

Date:

Astronomy

Mar. 22, 2013 Rise Set
Actual Time 7:05 AM EDT 7:20 PM EDT
Civil Twilight 6:37 AM EDT 7:48 PM EDT
Nautical Twilight 6:04 AM EDT 8:21 PM EDT
Astronomical Twilight 5:30 AM EDT 8:55 PM EDT
Moon 2:40 PM EDT (3/22) 4:09 AM EDT (3/22)
Length of Visible Light 13h 11m
Length of Day
12h 15m
Waxing Gibbous, 77% of the Moon is Illuminated
Mar 22
Waxing Gibbous
Mar 27
Full
Apr 3
Last Quarter
Apr 10
New
Apr 18
First Quarter

Hourly Weather History & Observations

Time (EDT) Temp. Windchill Dew Point Humidity Pressure Visibility Wind Dir Wind Speed Gust Speed Precip Events Conditions
12:23 AM 24.8 °F 19.1 °F 21.2 °F 86% 29.69 in 2.5 mi WSW 4.6 mph - 0.00 in Snow Light Snow
12:49 AM 24.8 °F 17.9 °F 21.2 °F 86% 29.70 in 4.0 mi WSW 5.8 mph - 0.00 in Snow Light Snow
12:56 AM 24.1 °F 17.0 °F 21.0 °F 88% 29.74 in 6.0 mi WSW 5.8 mph - 0.00 in Snow Light Snow
1:46 AM 24.8 °F 13.4 °F 19.4 °F 80% 29.70 in 10.0 mi WNW 12.7 mph - 0.00 in Snow Light Snow
1:56 AM 25.2 °F 14.4 °F 20.1 °F 81% 29.74 in 6.0 mi WNW 11.5 mph - 0.00 in Snow Light Snow
2:10 AM 24.8 °F 14.6 °F 21.2 °F 86% 29.70 in 3.0 mi WNW 10.4 mph - 0.00 in Snow Light Snow
2:56 AM 25.2 °F 15.1 °F 21.0 °F 84% 29.74 in 4.0 mi WNW 10.4 mph - 0.00 in Snow Light Snow
3:56 AM 25.2 °F 15.7 °F 19.0 °F 78% 29.74 in 10.0 mi West 9.2 mph - 0.00 in   Overcast
4:56 AM 24.1 °F 15.2 °F 19.0 °F 81% 29.74 in 10.0 mi West 8.1 mph - 0.00 in Snow Light Snow
5:56 AM 24.1 °F 15.2 °F 19.0 °F 81% 29.75 in 10.0 mi West 8.1 mph - 0.00 in Snow Light Snow
6:29 AM 23.0 °F 13.9 °F 19.4 °F 86% 29.72 in 10.0 mi WNW 8.1 mph - 0.00 in Snow Light Snow
6:56 AM 23.0 °F 13.9 °F 19.0 °F 85% 29.77 in 10.0 mi West 8.1 mph - 0.00 in   Overcast
7:56 AM 24.1 °F 16.0 °F 19.0 °F 81% 29.78 in 10.0 mi West 6.9 mph - 0.00 in   Overcast
8:33 AM 24.8 °F 16.1 °F 19.4 °F 80% 29.73 in 10.0 mi West 8.1 mph - 0.00 in Snow Light Snow
8:56 AM 25.2 °F 16.5 °F 19.0 °F 78% 29.78 in 10.0 mi West 8.1 mph - 0.00 in   Overcast
9:56 AM 27.1 °F 15.4 °F 20.1 °F 75% 29.79 in 10.0 mi West 15.0 mph - N/A   Overcast
10:56 AM 28.0 °F 17.5 °F 20.1 °F 72% 29.79 in 10.0 mi WNW 12.7 mph - N/A   Overcast
11:56 AM 29.1 °F 17.1 °F 23.0 °F 78% 29.80 in 6.0 mi NW 17.3 mph - 0.00 in Snow Light Snow
12:22 PM 30.2 °F 18.1 °F 23.0 °F 75% 29.75 in 7.0 mi NW 18.4 mph - 0.00 in Snow Light Snow
12:56 PM 29.1 °F 16.0 °F 24.1 °F 81% 29.81 in 1.0 mi WNW 20.7 mph - 0.00 in Snow Light Snow
1:29 PM 30.2 °F 19.3 °F 24.8 °F 80% 29.76 in 5.0 mi WNW 15.0 mph 20.7 mph 0.00 in Snow Light Snow
1:56 PM 31.1 °F 20.9 °F 23.0 °F 72% 29.81 in 10.0 mi NW 13.8 mph 24.2 mph 0.00 in Snow Light Snow
2:56 PM 29.1 °F 17.5 °F 23.0 °F 78% 29.81 in 10.0 mi NW 16.1 mph 19.6 mph 0.00 in Snow Light Snow
3:56 PM 28.0 °F 18.1 °F 24.1 °F 85% 29.83 in 7.0 mi NW 11.5 mph - 0.00 in Snow Light Snow
4:56 PM 29.1 °F 19.4 °F 23.0 °F 78% 29.83 in 10.0 mi NW 11.5 mph - 0.00 in Snow Light Snow
5:56 PM 30.0 °F 18.3 °F 22.1 °F 72% 29.85 in 7.0 mi WNW 17.3 mph - 0.00 in Snow Light Snow
6:56 PM 29.1 °F 18.4 °F 21.0 °F 72% 29.88 in 10.0 mi WNW 13.8 mph - 0.00 in   Overcast
7:56 PM 29.1 °F 17.1 °F 21.0 °F 72% 29.90 in 10.0 mi WNW 17.3 mph - N/A   Overcast
8:56 PM 29.1 °F 17.5 °F 22.1 °F 75% 29.91 in 10.0 mi West 16.1 mph 24.2 mph N/A   Overcast
9:56 PM 29.1 °F 19.4 °F 21.0 °F 72% 29.92 in 10.0 mi WNW 11.5 mph - 0.00 in   Overcast
10:56 PM 29.1 °F 20.6 °F 21.0 °F 72% 29.92 in 10.0 mi West 9.2 mph - 0.00 in Snow Light Snow